Mount Shasta, CA

8:26 AM PDT on October 17, 2017 (GMT -0700)
Mount Shasta

Weather History for KMHS - June, 2013

Change the Weather History Date:

Tuesday, June 11, 2013

  Actual Average Record
Temperature  
Mean Temperature 64 °F 60 °F  
Max Temperature 77 °F 76 °F 92 °F (1986)
Min Temperature 51 °F 45 °F 29 °F (1908)
Degree Days  
Heating Degree Days 1 5  
Month to date heating degree days 1 70  
Since 1 June heating degree days 1 70  
Since 1 July heating degree days 5010 5622  
Cooling Degree Days 0 1  
Month to date cooling degree days 61 11  
Year to date cooling degree days 70 19  
Since 1 June cooling degree days 61 11  
Growing Degree Days 14 (Base 50)    
Moisture  
Dew Point 44 °F    
Average Humidity 56    
Maximum Humidity 89    
Minimum Humidity 33    
Precipitation  
Precipitation 0.00 in 0.05 in 0.69 in (2009)
Month to date precipitation 0.00 0.58  
Year to date precipitation 6.41 25.98  
Sea Level Pressure  
Sea Level Pressure 29.98 in    
Wind  
Wind Speed 2 mph (NW)    
Max Wind Speed 12 mph    
Max Gust Speed 21 mph    
Visibility 10 miles    
Events      
T = Trace of Precipitation, MM = Missing Value Source: NWS Daily Summary

Daily Weather History Graph

Daily Weather History Graph

Search for Another Location

Airport or City:

Trip Planner

Search our weather history database for the weather conditions in past years. The results will help you decide how hot, cold, wet, or windy it might be!

Date:

Astronomy

Jun. 11, 2013 Rise Set
Actual Time 5:35 AM PDT 8:42 PM PDT
Civil Twilight 5:01 AM PDT 9:16 PM PDT
Nautical Twilight 4:18 AM PDT 9:59 PM PDT
Astronomical Twilight 3:27 AM PDT 10:50 PM PDT
Moon 8:25 AM PDT (6/11) 10:47 PM PDT (6/11)
Length of Visible Light 16h 14m
Length of Day
15h 07m
Waxing Crescent, 9% of the Moon is Illuminated
Jun 11
Waxing Crescent
Jun 16
First Quarter
Jun 23
Full
Jun 29
Last Quarter
Jul 8
New

Hourly Weather History & Observations

Time (PDT) Temp. Dew Point Humidity Pressure Visibility Wind Dir Wind Speed Gust Speed Precip Events Conditions
12:56 AM 55.9 °F 48.9 °F 77% 29.95 in 10.0 mi Calm Calm - N/A   Overcast
1:56 AM 55.9 °F 48.9 °F 77% 29.95 in 10.0 mi Variable 3.5 mph - N/A   Overcast
2:56 AM 54.0 °F 48.9 °F 83% 29.95 in 10.0 mi Calm Calm - N/A   Mostly Cloudy
3:56 AM 53.1 °F 48.9 °F 86% 29.95 in 10.0 mi Calm Calm - N/A   Clear
4:56 AM 52.0 °F 48.0 °F 86% 29.95 in 10.0 mi Calm Calm - N/A   Clear
5:56 AM 51.1 °F 46.9 °F 86% 29.97 in 10.0 mi Calm Calm - N/A   Mostly Cloudy
6:56 AM 53.1 °F 48.9 °F 86% 29.99 in 10.0 mi Calm Calm - N/A   Overcast
7:56 AM 57.0 °F 48.9 °F 74% 29.99 in 10.0 mi Calm Calm - N/A   Scattered Clouds
8:56 AM 61.0 °F 46.0 °F 58% 30.00 in 10.0 mi Calm Calm - N/A   Clear
9:56 AM 64.0 °F 46.0 °F 52% 29.99 in 10.0 mi Calm Calm - N/A   Clear
10:56 AM 68.0 °F 44.1 °F 42% 29.98 in 10.0 mi Calm Calm - N/A   Clear
11:56 AM 71.1 °F 44.1 °F 38% 29.97 in 10.0 mi Calm Calm - N/A   Clear
12:56 PM 71.1 °F 44.1 °F 38% 29.96 in 10.0 mi Calm Calm - N/A   Mostly Cloudy
1:56 PM 73.0 °F 46.0 °F 38% 29.96 in 10.0 mi Variable 3.5 mph - N/A   Mostly Cloudy
2:56 PM 71.1 °F 45.0 °F 39% 29.95 in 10.0 mi Variable 4.6 mph - N/A   Mostly Cloudy
3:56 PM 77.0 °F 46.9 °F 34% 29.94 in 10.0 mi Variable 3.5 mph - N/A   Partly Cloudy
4:56 PM 75.0 °F 46.9 °F 37% 29.93 in 10.0 mi Calm Calm - N/A   Partly Cloudy
5:56 PM 70.0 °F 43.0 °F 38% 29.95 in 10.0 mi NW 4.6 mph - N/A   Mostly Cloudy
6:56 PM 66.0 °F 37.9 °F 36% 29.97 in 10.0 mi Variable 5.8 mph - N/A   Mostly Cloudy
7:56 PM 62.1 °F 39.0 °F 43% 29.99 in 10.0 mi Variable 5.8 mph - N/A   Clear
8:56 PM 57.9 °F 37.9 °F 47% 30.01 in 10.0 mi Variable 6.9 mph - N/A   Partly Cloudy
9:56 PM 55.9 °F 37.0 °F 49% 30.03 in 10.0 mi Variable 4.6 mph - N/A   Scattered Clouds
10:56 PM 54.0 °F 35.1 °F 49% 30.04 in 10.0 mi Variable 3.5 mph - N/A   Scattered Clouds
11:56 PM 51.1 °F 35.1 °F 54% 30.05 in 10.0 mi Variable 5.8 mph - N/A   Clear